CAPE
1178 1098 1929 2278 2238 2620 2746 2594 2649 2770 2608 2432 2264 2136 1955 1894 1855 1855 1923 1855 1794 1778 1675 1600 1446 1430 1513 1378 1282 1295 1348 1243 1149 1090 990 935 1040 738 661 608 518 389 280 336 259 267 255 196 134 139 123 437 667 624 647 510 930 1030 940 877 799 1005 1475 1483 1641 1618 1557 1526 1511 1548 1449 1359 1247 1251 1355 1364 1305 1137 1040 877 877 939 920 921 1104
1056 1513 1774 2133 2434 2648 2618 2619 2740 2737 2595 2324 2240 2107 1987 1920 1913 1871 1890 1846 1770 1710 1728 1629 1399 1449 1535 1418 1408 1322 1294 1303 1198 1079 919 864 739 639 492 486 445 322 313 234 247 306 326 261 261 237 258 227 377 400 477 582 503 952 1056 973 968 1188 1476 1438 1448 1592 1618 1538 1450 1467 1403 1311 1260 1380 1310 1327 1374 1290 1119 1174 1010 817 928 1069 1139
936 1314 1810 2075 2399 2570 2683 2643 2737 2651 2501 2402 2221 2077 1997 1958 1916 1955 1929 1852 1798 1812 1890 1653 1367 1392 1470 1530 1492 1472 1394 1340 1213 978 839 692 661 542 490 463 337 265 313 316 357 312 289 338 321 298 281 204 304 296 482 754 888 856 1011 1096 1072 1090 1220 1344 1577 1831 1914 1621 1548 1552 1426 1273 1051 1130 1155 1210 1286 1295 1210 1119 1086 848 1224 1112 1067
1099 1429 1702 1880 2439 2465 2545 2653 2665 2571 2448 2275 2174 2036 1999 2026 2034 1973 1947 1916 1901 1932 1869 1674 1517 1454 1533 1541 1488 1446 1352 1366 1179 914 722 625 569 544 532 384 278 353 429 424 454 462 441 434 423 428 390 377 367 291 315 531 663 727 831 886 876 859 962 1151 1543 1879 2129 1444 1434 1316 1232 812 934 1132 1198 1186 1058 1026 1030 1105 1075 1064 1047 1022 1071
685 1278 1475 1444 1878 2382 2495 2571 2564 2447 2289 2217 2163 2059 2072 2117 2058 2046 1983 1853 2026 1972 1894 1753 1624 1542 1555 1451 1374 1242 1226 1112 1021 906 804 739 665 567 428 379 514 420 422 457 597 537 555 657 608 456 376 348 390 369 377 355 467 521 572 618 581 523 518 776 874 1576 1627 1425 1526 1284 712 642 669 1058 1115 1007 937 857 761 802 821 880 852 789 863
806 1283 1547 1626 1478 2080 2391 2441 2439 2308 2233 2216 2188 2164 2206 2214 2121 1988 1963 2038 2130 2042 1936 1788 1488 1451 1420 1336 1185 1070 1042 979 994 808 801 911 852 532 382 572 762 511 566 602 657 760 841 935 936 752 527 489 445 409 475 264 328 369 413 429 493 461 616 609 742 772 996 1716 2232 1014 553 525 547 632 1024 962 850 762 714 632 628 607 564 553 619
736 786 1003 1296 1084 2076 2264 2330 2380 2264 2201 2269 2170 2139 2202 2182 2092 2038 2204 2218 2095 1962 1871 1663 1421 1360 1318 1249 1113 1023 1008 966 1021 1214 947 835 578 602 606 933 736 693 658 638 785 989 1004 994 1251 1354 992 593 497 529 515 350 258 299 259 234 322 486 427 632 651 1039 780 1238 1393 1282 382 378 399 438 814 739 727 652 650 592 476 510 482 451 424
685 446 515 991 1357 2076 2188 2252 2274 2265 2197 2129 2107 2106 2120 2105 2110 2138 2240 2107 1964 1840 1695 1478 1343 1298 1305 1162 1035 877 827 924 951 1276 1141 789 567 884 1068 1009 741 731 834 921 1159 1295 1277 1316 1338 1399 1289 1166 660 573 365 252 185 191 160 291 378 640 850 401 1018 977 797 606 426 491 150 231 301 399 536 604 664 582 522 326 280 280 295 336 311
471 390 566 903 1356 1972 2017 2088 2168 2200 2145 2138 2189 2190 2173 2114 2098 2161 2130 1911 1750 1624 1555 1403 1303 1280 1276 1146 1076 916 788 863 1018 1157 1116 822 786 1081 1414 1232 1006 894 1064 1323 1391 1415 1481 1409 1432 1347 1317 1167 697 477 392 255 111 0 67 103 259 664 976 1588 1447 1575 653 147 153 82 104 88 90 144 536 487 566 542 340 142 139 366 409 336 294
491 409 506 902 1471 2009 1947 1980 2072 2164 2201 2289 2207 2188 2139 2098 2064 2037 1919 1883 1707 1637 1475 1334 1200 1202 1265 1237 1142 1034 930 921 1065 1091 1111 1015 1066 1398 1364 1168 936 1031 1175 1392 1457 1410 1489 1462 1333 1286 1189 1102 965 595 323 218 196 113 27 228 486 590 614 955 1180 1055 182 97 226 178 96 48 25 127 205 566 433 264 153 113 103 294 313 329 283
440 441 793 825 1495 1818 1850 1966 2106 2193 2240 2244 2056 2102 2075 1962 2015 1986 1952 1785 1697 1610 1419 1327 1233 1188 1191 1122 1098 1179 1146 1053 1058 1110 1104 1172 1237 1568 1193 1362 1563 1617 1828 1833 1652 1553 1454 1366 1247 1219 1154 1318 1216 734 448 347 208 193 186 225 225 652 406 730 885 256 47 119 298 221 377 312 178 169 318 371 263 107 87 386 271 206 183 194 190
577 789 1053 995 1751 1695 1776 1868 1976 2098 2108 2094 1998 2018 1978 1836 1788 1930 1960 1794 1812 1599 1515 1488 1458 1313 1181 1180 1222 1296 1168 1020 1026 1246 1269 1380 1765 1918 1835 1960 1907 1904 1853 1724 1603 1387 1422 1311 1202 1128 1302 1330 1328 1028 638 482 435 328 231 282 289 562 571 494 859 317 261 283 228 154 115 144 197 300 334 280 185 81 154 248 238 163 124 104 100
623 922 1284 1256 1263 1587 1679 1749 1843 1925 2045 2094 1978 1994 1892 1731 1714 1803 1880 1942 1877 1770 1570 1649 1606 1614 1536 1413 1369 1391 1348 1524 1427 1468 1445 1552 2054 2215 2037 1944 1883 1874 1748 1678 1522 1365 1338 1313 1172 1170 1239 1317 1314 1304 1018 680 524 561 526 305 314 394 456 820 974 216 267 183 129 61 33 28 60 137 121 116 116 134 233 185 128 110 81 190 154
1357 1230 910 763 1204 1624 1589 1617 1730 1826 1860 1947 1974 1942 1820 1860 1884 1878 1803 1811 1947 1931 1818 1866 1902 1752 1786 1736 1670 1609 1684 1765 1731 1654 1836 1987 2020 1899 1790 2010 1922 1839 1693 1539 1408 1390 1243 1205 1108 1165 1314 1468 1476 1406 1277 1005 767 390 512 261 371 322 586 1046 392 322 116 37 54 44 60 73 66 194 206 251 216 190 157 134 118 88 62 58 53
1050 1016 895 791 1223 1422 1661 1608 1687 1673 1685 1708 1808 1830 1845 1843 1830 1762 1803 1908 1952 2024 1889 1740 1852 1713 1476 1416 1500 1484 1568 1593 1780 1972 2047 1947 1944 1827 1799 1894 1727 1585 1512 1449 1370 1224 1052 1008 1184 1268 1284 1388 1445 1408 1186 1052 773 682 376 354 375 655 946 912 517 287 274 230 151 70 62 59 139 314 268 222 174 160 159 114 89 94 81 68 205
835 633 888 860 1011 1274 1419 1573 1627 1631 1695 1831 1861 1860 1840 1823 1837 1941 1933 1927 1968 1975 1813 1629 1729 1493 1524 1562 1604 1501 1460 1294 1846 2057 2036 1934 1796 1725 1729 1634 1544 1409 1360 1238 1144 1265 1321 1128 1185 1327 1316 1317 1423 1409 1089 974 876 700 380 477 404 1032 1282 1564 310 102 90 60 38 67 82 117 180 193 132 111 114 76 68 38 64 82 47 66 53
794 651 644 860 936 866 978 1131 1406 1581 1662 1805 1851 1838 1890 1892 1900 1883 1853 1898 1934 1958 1819 1953 1978 1713 1730 1607 1608 1582 1501 1632 1920 1966 2016 1948 1754 1593 1580 1526 1421 1300 1194 1187 1322 1400 1355 1295 1268 1247 1268 1380 1297 1234 1083 806 699 878 235 674 748 1299 1880 3316 447 431 243 139 141 75 34 15 24 55 81 42 30 75 78 65 72 105 261 231 180
797 652 548 920 870 905 1068 1059 1225 1288 1318 1625 1764 1744 1837 1818 1815 1842 1889 1956 2000 1848 1732 1859 1896 1725 1803 1832 1730 1732 1676 1782 2010 1982 1976 1948 1807 1637 1514 1439 1362 1220 1046 1126 1397 1422 1433 1361 1436 1353 1300 1279 1281 1254 1191 1044 810 1026 1024 1211 1396 1836 2274 2768 474 468 306 174 50 93 101 194 268 222 244 222 196 169 134 97 166 217 184 162 109
604 802 580 768 738 919 886 975 1061 962 1245 1256 1425 1720 1695 1853 1867 1916 1922 1977 1920 1776 1793 1830 1652 1530 1701 1671 1822 1925 1721 1749 1926 1925 2000 1952 1838 1711 1588 1421 1307 1192 1171 1257 1405 1406 1409 1400 1346 1426 1383 1334 1264 1295 1283 1044 1131 1221 868 1280 1293 1665 1824 2400 328 285 164 94 94 152 114 204 196 220 230 275 227 173 102 109 94 90 80 46 35
732 891 897 804 783 820 892 936 893 1040 935 1051 1432 1528 1878 1962 2022 1990 1973 1918 1848 1847 1898 1853 1824 1567 1718 1570 1667 1887 1880 1840 1829 1895 1955 1950 1811 1566 1568 1408 1275 1238 1209 1272 1426 1454 1446 1358 1427 1450 1443 1317 1294 1296 1241 1173 1029 1374 1136 1180 1009 1520 1447 505 478 321 126 159 184 141 214 187 166 156 272 341 300 244 154 107 126 125 104 73 20
1191 1116 958 860 928 883 1049 818 1110 1248 1208 1257 1372 1478 1706 1890 1948 1879 1898 1929 1574 1820 1898 1820 1865 1770 1794 1905 1940 1880 1947 1747 1765 1636 1877 1604 1648 1687 1470 1373 1226 1183 1230 1214 1286 1458 1381 1300 1352 1539 1521 1426 1345 1319 1173 1210 1311 959 1445 1212 1256 996 993 271 237 44 20 46 116 104 177 128 174 201 210 207 211 182 180 168 132 104 78 64 37
1132 900 881 956 806 775 742 959 1224 1406 1419 1330 1387 1416 1664 1624 1654 1720 1588 1654 1776 2041 1941 1939 1860 1937 1884 1634 1580 1758 1404 1544 1545 1350 1463 1685 1529 1432 1374 1241 1144 1195 1148 1130 1165 1325 1337 1300 1342 1565 1573 1493 1380 1143 1134 1257 1322 1398 1216 1196 1329 1159 555 293 251 51 127 137 163 166 196 236 261 241 276 263 186 141 148 175 128 95 39 33 42
1030 931 904 1100 858 817 864 1093 1131 1195 1270 1153 1222 1615 1577 1458 1583 1756 1618 1723 1853 2030 1748 1309 1570 1740 1644 1441 1581 1392 1198 1262 1138 1487 1407 1400 1438 1294 1155 1074 1097 1228 1219 1161 1174 1289 1244 1219 1269 1331 1604 1569 1403 1152 901 759 883 1161 1424 1362 1233 1417 683 242 258 162 208 286 279 390 320 287 304 331 217 175 216 233 217 139 65 57 43 22 18
1057 1159 895 726 815 930 1087 1050 868 1178 1084 978 1229 1453 1363 1209 1449 1472 1525 1531 1745 1669 1312 852 1033 1284 1120 1352 1061 1311 1000 1336 900 879 1141 1342 1383 1298 1213 1109 1002 968 1177 1129 1278 1090 1074 1093 1255 1414 1661 1481 1135 1140 846 670 872 878 1122 1255 1599 329 302 309 194 145 181 299 416 469 392 382 339 333 340 284 291 245 217 179 175 129 50 32 20
1107 1029 1130 1082 1070 1278 1232 1296 1212 1516 1514 801 899 1322 1123 1037 990 1069 1101 1255 1413 1040 761 1552 1975 1586 1557 1482 1234 1050 1141 1286 1062 1300 1169 1111 1077 1110 1118 958 936 708 1119 848 820 793 776 751 818 1229 1467 1247 1053 1056 1965 1737 2646 1620 1234 1572 772 844 584 589 572 483 559 587 728 777 624 558 445 358 366 343 266 221 179 141 126 78 44 39 20
1654 1052 1047 1322 781 1127 1146 1329 1364 1551 1337 1176 1062 1082 1138 1812 853 920 888 988 1268 1727 1387 1433 1472 1176 1188 1169 1407 914 852 1142 790 844 1180 1022 862 1069 828 832 723 676 960 794 431 511 311 352 454 530 1208 1255 1255 1453 1765 2065 2054 1571 590 906 827 672 519 380 732 688 727 792 890 999 890 773 576 498 408 319 234 207 197 144 93 90 25 12 0
1362 1118 990 840 777 809 841 1004 858 998 671 580 932 1388 1488 2037 2034 1861 1446 2005 1609 1243 1366 1338 987 963 928 1078 1129 944 991 1008 1046 741 746 1101 918 866 867 914 935 663 614 779 304 333 156 410 396 528 653 386 953 1459 1481 1102 1488 1654 1347 726 509 522 668 493 798 827 772 839 1240 1311 983 735 574 396 387 299 244 194 152 124 122 82 51 30 20
1696 1012 904 981 1019 996 700 905 962 998 841 740 744 1415 1830 1734 1968 1669 963 1457 1074 1047 952 1129 1116 810 1059 1148 1402 1107 1137 891 1195 1091 1050 1180 1723 1837 901 547 523 448 379 556 434 262 156 428 362 268 312 276 804 1758 1558 1489 1552 930 698 560 777 885 800 700 407 806 815 816 1133 1460 1040 743 557 599 436 362 258 192 161 183 101 53 52 111 101
1023 1052 888 974 943 1086 1002 994 946 599 587 704 1086 1482 2039 1722 1025 1294 1117 1293 943 933 887 890 911 920 764 996 1564 1380 1227 1203 1290 1294 1403 1479 1102 805 846 718 425 357 511 710 464 266 372 590 389 420 378 483 1261 1258 1285 1178 1098 976 644 240 454 684 591 848 400 699 955 909 943 1356 1124 822 861 843 740 618 469 418 266 169 104 118 238 224 222
1297 1149 847 934 1077 1199 958 1055 1039 1007 692 750 746 1146 1490 1166 1072 1212 1153 1182 1210 1127 863 742 750 830 788 775 1502 1504 1379 1342 1425 1385 1383 886 924 728 594 420 738 858 491 628 503 612 517 447 690 560 226 380 648 925 1206 965 672 871 354 352 616 778 709 1201 671 801 880 773 916 1229 1178 1088 992 808 642 386 240 286 229 172 176 222 260 337 346
1165 1014 1453 1056 1344 1029 1103 955 780 959 843 1001 992 982 1285 1118 1272 1792 1686 1420 1540 1440 965 991 1016 1166 1178 1254 1264 1336 1107 1128 1366 1084 1010 921 618 628 490 573 720 752 741 1021 1509 803 701 620 892 496 264 117 861 974 813 746 664 734 310 802 442 559 928 1064 968 794 779 716 838 889 1254 1572 1380 1180 806 627 468 437 349 314 316 340 491 545 520
1102 1339 1495 1254 1216 1003 1187 1161 859 1025 918 1065 846 833 886 975 1248 1359 1203 1063 1120 1365 1255 1173 1244 1404 1256 1149 1294 1305 1154 1371 1272 921 1002 709 576 738 774 744 756 986 962 908 849 721 646 745 586 565 903 1370 1061 1104 923 690 588 340 230 557 383 300 664 712 999 942 842 814 635 515 651 1062 1222 1138 1064 765 597 606 469 474 516 619 635 599 678
1024 1358 1394 1277 1061 1112 1172 1145 1169 1318 1083 1021 872 869 890 939 1252 1255 1046 855 1116 1196 1261 1214 1107 1208 1161 1251 1344 1210 1077 953 1103 975 872 558 505 771 934 926 1092 1215 1296 1004 1144 1074 1354 1594 1056 1457 1367 747 673 770 1153 563 605 774 567 698 590 605 845 797 961 874 619 715 540 428 333 630 1054 1376 1220 908 996 677 710 722 790 784 864 762 732
1249 1364 1280 1308 1182 1127 1107 1188 1286 934 891 1140 1100 832 896 1039 1381 1080 931 945 914 865 858 1154 1120 1231 1268 1387 1345 1240 1126 866 1142 735 814 1107 995 720 760 1026 1151 1264 1329 1367 1274 1124 2007 1493 1320 1466 1230 1082 984 884 986 419 883 1489 845 556 219 461 447 673 813 954 740 680 823 600 544 512 620 769 1014 1114 935 836 752 769 754 810 777 715 718
1343 1395 1396 1469 1357 1289 1438 1457 1205 1097 960 1226 1253 1118 986 1176 1324 913 864 847 698 657 748 923 952 1148 1313 1193 1261 1117 1017 972 1352 1011 896 1034 794 965 1153 1429 1556 1488 1303 2058 2662 2009 1499 1325 2225 1296 500 688 1366 1481 797 832 762 702 427 245 363 379 387 741 786 678 836 661 554 630 592 541 902 681 782 930 917 884 867 775 886 860 864 750 735
1205 1434 1542 1465 1458 1339 1599 1743 1324 1234 915 1176 1478 1374 1566 1388 942 916 816 819 792 742 909 964 930 1045 1157 1052 1228 1256 1042 854 1332 1317 1877 1163 1129 1187 1140 1758 1591 1594 1708 2302 2036 1554 1523 1326 1537 1692 768 746 1048 1569 1448 1114 787 264 756 489 282 238 320 786 975 787 982 690 710 644 524 564 732 764 974 752 811 786 793 740 780 852 879 861 788
1474 1624 1679 1434 1546 1500 1538 1587 1471 1294 1506 1288 1542 1420 1413 1147 874 804 668 735 770 816 691 854 1035 1046 1133 1102 1144 869 753 566 614 1222 1495 1174 1269 970 1140 1344 1657 1574 1916 1752 1769 1659 977 1334 1505 1639 1270 1268 1297 980 914 608 435 360 352 483 615 439 407 1077 1250 615 872 852 912 861 802 768 926 1063 868 945 809 738 766 835 655 577 516 649 854
1220 1563 1695 1676 1626 1601 1553 1360 1522 1330 1840 1733 1742 1558 1360 1057 787 732 599 581 567 635 707 701 790 972 919 738 875 661 502 451 591 654 889 596 989 1346 1324 1295 1379 2230 1707 1331 1578 1410 1364 1296 1182 1569 1347 937 1115 893 636 368 737 462 657 419 642 939 777 690 1111 848 799 751 854 1089 1164 973 981 821 801 1031 704 688 571 557 427 270 372 533 655
1438 1585 1559 1856 1950 1740 1462 1386 1506 1590 1772 1796 1540 1502 1397 1139 860 660 588 548 562 681 654 696 749 995 1004 1080 1026 757 559 507 588 442 755 463 784 1332 1277 1285 1499 1533 1307 1172 1336 713 978 1234 1291 1060 1422 1380 1296 596 454 530 596 482 616 833 1124 950 840 954 1045 647 816 979 905 975 1105 1410 943 962 793 828 897 765 515 325 239 0 166 704 874
1632 1688 1515 1708 1971 2060 1696 1729 1803 1784 1770 1703 1359 1356 1224 1075 938 849 731 458 457 539 495 544 599 766 849 837 1010 726 391 578 634 432 331 338 1333 1324 1361 1391 1738 1299 1156 1356 1076 561 705 528 814 1250 1060 1163 1089 693 554 581 691 715 730 812 960 893 775 683 627 770 1003 686 801 672 895 662 950 867 790 856 955 910 897 951 934 32 186 598 832
1514 1548 1633 1824 2016 1941 1833 1818 1842 1800 1761 1392 1346 1288 1262 1246 1072 770 662 704 810 662 481 453 516 613 788 798 769 593 644 617 814 704 853 1108 1718 1748 1849 1798 1526 1552 1412 1649 842 558 668 576 898 1110 1116 1208 915 675 673 624 610 514 611 690 713 874 858 736 614 633 711 685 529 324 661 684 825 981 784 913 864 671 1025 869 648 336 258 358 372
1687 1663 1771 1941 2134 1847 1751 1859 1778 1743 1695 1563 1456 1406 1360 1281 1096 1100 913 820 576 589 672 674 572 549 595 715 565 602 521 596 679 808 1283 1597 1451 1391 1582 1552 1168 993 628 895 687 466 723 744 1051 807 1236 1015 663 623 581 694 641 454 454 408 403 601 675 614 600 634 473 544 580 464 337 627 1110 582 913 804 696 688 641 600 401 572 561 706 715
1774 1853 1635 1779 2179 2106 1832 1870 1780 1692 1613 1703 1532 1473 1543 1553 1121 678 1148 862 560 770 753 803 607 603 784 811 557 379 470 661 626 813 1267 1445 1458 1413 1374 921 860 885 751 570 633 496 628 733 792 679 630 671 538 425 439 1112 660 585 438 306 321 285 420 512 586 482 507 726 780 383 394 533 555 609 685 650 572 171 140 177 367 461 544 479 358
1626 1910 1621 1713 2267 2006 1982 1918 1752 1642 1659 1658 1584 1809 1574 1410 1201 1164 1331 1167 1048 1090 1081 996 844 813 802 772 586 827 941 816 683 887 1142 1237 1323 1239 1200 989 777 997 950 628 706 573 698 576 709 922 687 664 588 439 588 1021 692 466 372 383 294 257 201 302 588 912 837 762 697 403 527 535 490 457 378 345 11 12 44 115 313 308 643 552 363
1782 1534 1671 1941 2329 2225 2171 1936 1792 1829 1746 1607 1671 1630 1422 1254 1223 1279 1271 1131 960 822 819 741 828 840 937 898 1005 1160 957 1062 1213 1036 1150 1073 1004 1253 1103 1100 1095 1268 1145 1133 755 610 405 340 748 907 683 808 788 947 798 1019 1184 1232 786 301 194 200 227 308 496 496 519 449 653 455 397 311 215 188 2 0 0 0 31 143 299 374 399 402 305
2388 1258 1502 1654 2000 2264 2228 2206 1969 1962 1787 1691 1698 1563 1367 1239 1096 1009 991 1012 795 608 618 686 694 721 772 793 904 876 1112 1118 1145 1190 1103 984 961 1171 1184 914 1034 1427 1305 1521 1129 522 550 566 583 611 621 1215 853 814 530 513 1094 1246 1074 1337 1518 268 316 397 402 288 898 598 222 159 176 423 210 1 0 0 0 1 70 162 231 105 101 147 146
2015 1318 1059 1176 1579 1643 2222 2073 2016 1904 1741 1629 1616 1611 1475 1284 1195 1090 1148 1100 920 860 859 845 782 680 748 628 590 939 926 1142 976 845 918 898 1088 1192 1344 1294 1052 1176 1387 1650 1127 521 552 263 733 542 764 1062 1092 818 554 504 1059 908 989 1418 1027 806 666 318 318 155 220 208 570 185 110 39 2 0 0 0 0 0 15 2 22 1 20 6 0
2042 1503 1528 1284 1099 1511 1857 2134 1882 1648 1634 1636 1708 1679 1502 1458 1360 1159 1149 1150 1059 1144 1135 930 931 801 813 637 852 1164 945 998 1131 926 979 991 1117 1376 1477 1574 1260 1205 1106 1221 1126 785 667 577 816 955 813 718 657 710 840 756 702 591 856 1374 1267 935 1199 1127 250 302 222 211 272 179 59 0 0 1 0 0 0 0 1 0 0 0 0 0 0
1895 1424 1403 1339 1393 1756 1954 2150 1861 1674 1665 1706 1676 1623 1560 1569 1553 1378 1285 1253 1341 1198 1017 836 816 1014 846 827 963 768 1227 1361 1312 1287 1018 1072 1298 1439 1320 1487 1412 1187 835 668 1216 975 904 1244 1267 1100 834 1003 879 1052 1128 946 831 762 912 837 991 957 1178 948 635 572 344 218 119 149 26 0 0 0 0 0 0 0 0 1 0 0 0 0 0
1832 1644 1592 1434 1480 1762 1849 2140 1803 1782 1680 1688 1744 1658 1716 1725 1702 1443 1436 1518 1375 1297 1136 929 864 883 729 583 663 770 933 1691 1367 1474 1313 1206 1303 1320 1348 1423 1101 1172 955 780 958 983 1107 1048 1160 1215 964 786 774 980 1009 934 1087 1153 1212 904 878 591 641 1034 746 316 332 807 198 114 8 0 0 0 0 0 0 0 0 0 0 0 0 0 0
1819 1824 1611 1659 1780 1942 2148 2149 1820 1802 1769 1632 1688 1722 1790 1707 1555 1580 1658 1266 1209 1224 1077 805 879 657 868 681 590 769 1021 1200 1302 1858 1568 1579 1507 1415 1287 1277 1205 1386 1385 782 925 1013 1074 736 627 931 1138 1067 879 829 647 569 776 1084 868 767 843 598 585 808 475 567 526 179 208 74 0 0 0 0 0 0 0 0 0 0 0 0 0 0 0
Wind_Speed
28 30 28 30 29 29 28 30 31 32 34 35 35 35 35 35 36 37 37 37 37 37 37 36 35 34 31 31 30 30 28 28 27 28 27 25 24 25 25 24 23 22 22 22 21 20 20 18 18 19 18 20 20 20 20 20 19 17 16 16 16 15 15 16 17 18 19 18 17 17 17 18 16 15 15 16 16 16 13 14 13 8 6 10 8
31 29 27 28 30 29 30 30 31 34 34 35 36 35 35 35 36 37 39 38 38 37 37 36 35 34 31 30 30 29 28 27 28 27 27 26 25 24 24 24 23 22 22 22 21 21 19 19 18 18 17 17 18 19 19 19 19 17 15 14 15 17 16 14 14 17 18 18 18 17 17 17 16 15 15 16 13 12 11 11 13 5 2 9 6
32 28 27 29 31 31 29 30 32 34 35 36 36 35 35 35 36 38 40 39 38 37 36 36 35 34 31 30 29 29 28 28 28 28 27 26 26 25 24 24 24 23 22 21 21 21 20 19 18 18 17 17 17 17 18 16 16 15 14 13 11 13 14 13 13 15 18 19 16 15 16 16 15 14 16 16 15 12 12 14 13 10 7 13 7
33 27 27 29 31 30 30 31 32 34 35 35 36 35 34 35 37 38 40 40 38 36 36 36 35 34 31 30 29 29 28 28 28 28 27 26 25 25 24 24 24 23 21 20 20 21 20 19 18 17 16 16 16 17 17 14 14 13 13 11 9 9 9 8 9 11 12 15 14 10 4 4 9 13 14 15 15 14 11 12 13 13 15 13 12
32 28 27 27 29 30 31 31 32 34 35 35 36 36 35 36 38 38 39 39 37 36 36 36 35 33 30 29 29 28 28 28 28 27 26 26 25 25 24 24 24 22 20 20 19 20 20 18 17 17 16 16 16 15 15 13 12 12 12 11 10 8 7 6 6 8 10 12 9 7 6 6 6 12 12 12 13 13 13 13 14 14 13 14 13
31 28 26 27 28 30 31 31 33 34 34 35 36 36 36 37 38 38 38 38 36 35 36 36 35 33 30 29 28 27 27 27 28 27 27 26 25 24 24 25 24 22 21 20 19 19 18 18 17 16 15 15 15 15 15 13 11 11 11 10 9 7 5 6 5 8 11 10 2 3 6 7 5 6 12 12 13 14 14 16 16 13 12 12 12
32 26 27 27 27 29 31 32 33 34 35 35 36 36 37 38 39 38 38 38 37 35 34 35 35 32 29 28 28 27 27 26 26 27 27 27 26 22 25 25 23 22 21 20 19 18 18 18 17 15 15 15 15 17 16 13 11 10 9 7 6 7 5 6 8 8 12 8 4 3 5 7 5 5 11 11 12 13 15 15 15 14 14 13 12
30 25 26 27 27 29 31 32 33 34 35 36 36 37 38 39 39 39 37 38 37 36 34 34 34 31 28 27 28 26 25 26 25 25 27 28 26 21 22 24 23 22 20 19 19 18 17 17 16 15 14 14 15 16 16 14 10 9 7 8 6 7 6 6 7 8 12 7 8 3 5 8 5 4 10 11 12 14 15 15 14 14 15 14 11
30 28 27 27 28 32 31 32 34 35 36 36 37 39 40 40 40 38 38 38 38 36 35 34 33 30 28 27 27 27 26 26 26 26 29 28 26 23 21 23 22 20 19 17 17 17 16 14 14 15 15 14 14 16 16 15 11 nan nan 7 5 2 4 6 9 11 7 7 12 nan 8 nan nan 5 10 12 14 14 14 13 12 16 16 14 12
32 29 29 27 29 31 32 33 34 36 36 37 39 41 41 41 40 39 39 38 37 36 35 33 32 29 27 26 26 26 27 28 27 27 28 27 25 22 23 22 22 21 19 18 17 16 15 13 13 15 16 15 16 16 15 13 10 9 nan 6 3 3 5 9 11 10 9 nan 12 12 nan nan nan 7 9 13 15 15 15 14 12 13 13 14 14
32 30 30 30 33 32 33 34 35 36 38 38 41 41 41 41 40 39 38 38 37 35 34 33 31 28 26 26 26 26 28 27 27 27 27 26 24 23 24 21 19 19 18 17 18 17 16 15 15 16 15 15 16 17 14 12 10 9 7 4 2 1 4 7 8 5 nan 11 10 7 9 13 5 5 11 13 14 15 nan 16 17 16 15 15 15
34 32 32 31 35 33 34 35 36 38 39 40 41 41 40 40 39 38 38 37 35 34 32 31 30 27 27 25 26 27 28 27 27 26 25 24 23 25 23 22 20 19 17 17 18 18 18 17 17 15 13 14 15 15 13 10 9 7 4 4 3 2 4 8 6 1 11 12 11 8 8 8 7 8 13 13 14 nan 15 15 15 16 16 16 nan
34 34 35 33 33 34 35 36 36 38 38 39 40 40 39 39 38 37 37 35 32 31 31 30 28 26 25 25 27 27 27 25 25 24 23 22 25 26 24 22 22 19 18 18 19 20 19 17 15 13 12 14 15 15 13 9 7 6 5 4 4 4 6 9 8 6 11 11 9 nan nan nan nan 11 12 14 15 14 15 16 16 16 nan 18 17
37 35 34 33 32 37 35 36 36 37 38 38 38 38 38 38 37 36 35 33 31 30 30 30 28 26 24 24 25 26 26 24 25 24 24 26 26 26 24 22 22 19 18 19 20 19 18 17 16 14 13 15 17 16 12 10 8 6 5 6 6 6 7 7 5 12 13 nan nan nan nan nan nan 11 12 13 14 14 15 16 16 nan nan nan nan
37 37 35 33 34 34 38 35 36 37 37 37 36 36 37 36 36 35 33 31 30 29 30 29 28 25 25 25 27 28 27 28 27 27 28 28 29 28 24 24 22 20 19 19 19 18 18 17 15 14 14 16 18 16 12 10 9 6 5 8 7 7 6 3 7 12 13 13 10 nan nan nan 11 13 14 12 13 14 15 15 nan nan nan nan 19
37 37 36 34 34 34 33 36 35 35 35 35 35 36 36 35 35 34 32 31 30 30 30 29 27 26 25 24 26 26 27 28 28 29 29 30 30 28 24 24 22 20 18 19 17 17 18 15 15 15 16 17 18 16 12 11 10 7 8 9 10 8 7 3 7 11 nan nan nan nan nan 11 16 13 13 14 13 nan nan nan nan nan nan nan nan
38 37 36 36 35 34 33 34 35 36 35 35 36 37 35 35 34 34 33 32 31 30 30 27 25 26 24 24 25 26 26 27 27 28 29 30 30 27 26 24 22 20 19 18 17 16 16 14 14 14 16 17 17 16 15 14 11 10 12 11 9 7 6 3 12 11 11 13 13 nan nan nan nan nan nan nan nan nan nan nan nan 16 18 17 17
38 37 37 37 36 35 34 34 35 34 34 35 36 36 36 35 34 33 33 31 31 30 28 26 24 26 25 23 24 25 25 26 27 28 29 29 29 28 26 23 21 20 20 19 16 16 16 14 14 14 15 16 17 16 15 15 13 12 9 7 5 2 5 8 14 12 13 14 nan nan 10 13 16 15 15 15 16 16 15 nan 15 15 15 15 16
36 38 38 37 37 36 37 35 34 34 35 32 33 34 36 35 33 33 32 32 31 30 27 26 26 26 25 23 22 24 24 26 27 27 28 29 29 27 25 23 21 22 21 19 17 16 15 14 14 15 15 17 18 15 13 12 12 10 8 6 3 1 5 1 14 14 14 nan nan 12 10 12 14 17 16 16 16 16 16 17 nan nan nan nan nan
37 37 38 36 36 36 36 35 33 34 33 33 32 33 34 34 34 33 32 32 32 30 28 27 27 26 25 25 22 22 23 24 27 24 27 28 26 23 24 23 22 23 21 20 18 16 16 15 15 15 17 18 18 15 12 11 10 9 8 7 6 2 4 13 16 15 12 12 12 10 14 16 17 18 18 18 18 17 17 17 17 16 15 nan nan
34 37 35 36 37 36 36 35 34 35 34 34 32 32 32 34 33 33 33 32 31 30 29 28 27 25 24 25 23 22 21 22 22 22 25 22 22 24 24 24 22 23 23 20 18 17 17 16 16 15 17 19 18 15 13 11 10 9 8 6 4 5 8 16 16 nan nan nan 12 12 15 15 16 17 18 18 18 18 19 18 18 16 nan nan nan
32 33 35 36 36 35 37 35 33 35 34 33 31 30 30 30 30 29 29 30 29 29 27 25 25 23 24 23 22 22 24 19 20 22 19 21 22 24 24 24 23 23 22 21 18 19 19 17 16 15 18 19 18 13 13 12 10 9 8 6 6 6 11 15 16 nan 15 12 12 14 17 16 17 17 19 19 20 20 19 19 19 nan nan nan nan
31 31 32 35 34 35 35 35 35 35 35 34 32 31 30 26 27 27 28 29 27 26 25 25 24 23 23 24 25 24 26 24 22 19 20 21 22 22 24 23 23 22 22 20 19 19 19 18 16 14 16 19 15 13 13 14 13 13 12 9 9 9 13 17 17 16 15 14 12 16 16 16 18 18 18 19 20 21 21 21 nan nan nan nan nan
30 30 31 32 34 34 35 34 34 36 35 34 34 30 27 24 24 25 26 26 25 26 26 25 25 23 25 27 27 27 27 26 28 23 25 21 20 22 23 23 22 20 20 18 17 18 19 17 15 14 14 14 12 14 13 12 14 16 13 9 8 12 12 14 17 18 15 16 15 18 17 17 17 18 19 19 20 21 21 22 22 22 nan nan nan
28 29 33 31 34 33 33 31 32 35 33 33 34 29 26 23 23 25 25 25 26 26 28 29 27 26 29 28 28 29 28 27 27 26 23 20 18 17 18 18 19 18 17 16 16 17 16 14 13 12 13 12 11 13 12 12 14 14 9 6 9 10 11 15 18 18 16 16 15 18 18 18 18 18 19 19 20 20 21 21 22 nan nan nan nan
28 29 31 33 34 36 27 30 33 33 31 32 32 25 24 23 23 25 25 24 26 29 31 28 28 28 29 29 29 31 29 26 23 21 18 17 17 16 15 17 17 17 16 16 16 18 14 12 14 12 11 11 11 11 13 12 14 12 8 6 9 13 11 14 17 19 17 15 16 19 18 19 19 19 20 19 20 19 19 20 nan nan nan nan nan
26 30 32 36 32 30 26 24 26 28 32 33 28 19 21 26 24 26 25 25 27 29 29 27 27 28 28 27 27 27 24 21 19 17 14 15 17 14 13 15 15 15 17 15 18 17 13 12 11 11 10 10 11 12 14 13 11 9 7 6 10 10 13 14 17 19 17 16 17 19 19 20 20 20 20 20 20 20 20 20 20 nan nan nan nan
27 38 34 33 28 23 29 30 31 27 32 32 22 20 23 25 26 28 26 25 27 29 28 23 24 27 26 24 22 22 19 17 17 15 13 15 16 15 14 13 15 16 15 14 18 16 13 13 12 9 10 10 12 14 14 13 10 6 5 7 11 4 11 15 15 20 19 17 16 18 19 20 19 20 21 21 21 21 21 20 20 nan nan 22 21
38 36 32 26 28 29 32 34 34 35 36 29 21 20 22 25 25 27 26 24 28 28 26 22 23 28 25 21 18 19 17 16 16 15 15 15 17 16 15 13 14 13 13 11 17 16 14 13 13 10 13 11 15 14 13 12 10 5 7 10 9 5 14 12 17 20 20 18 17 17 19 19 20 21 20 21 21 21 22 22 22 23 22 21 20
35 33 28 29 29 33 33 33 34 31 32 30 23 23 22 24 24 24 26 24 24 27 26 22 23 27 24 19 18 18 18 17 16 14 15 14 17 15 13 10 10 10 13 11 13 17 15 12 11 12 14 13 16 14 11 10 9 7 6 11 9 4 19 12 17 19 19 18 17 16 19 18 17 17 21 21 22 22 22 23 22 21 20 19 19
37 29 26 27 28 33 36 33 31 30 30 29 26 24 22 23 21 23 23 26 26 27 25 20 20 23 23 20 19 17 18 17 16 15 15 14 15 11 8 7 8 10 10 10 12 15 16 13 12 13 12 11 15 13 11 11 9 7 6 11 12 8 18 15 17 19 19 17 16 15 16 17 19 21 19 21 21 22 21 20 20 19 18 17 16
36 22 21 26 29 34 35 32 28 29 32 29 26 24 25 24 23 24 24 25 26 26 26 24 22 22 22 19 18 17 17 17 17 16 15 15 12 9 10 10 9 9 9 11 11 13 12 15 13 13 13 17 14 14 12 11 8 7 6 15 14 12 14 18 17 18 18 16 15 15 13 15 20 19 17 17 19 19 18 17 17 17 16 14 12
24 20 22 25 31 33 31 29 27 30 32 30 25 23 26 25 21 23 25 24 25 26 26 25 22 20 20 18 18 18 17 18 16 16 16 16 13 12 13 7 9 10 9 10 11 11 12 15 15 13 14 13 14 12 11 11 10 9 12 15 16 13 11 11 17 17 16 14 14 14 13 14 14 18 18 16 15 16 16 15 14 14 12 11 10
22 21 24 27 29 29 27 25 24 31 32 29 24 21 25 23 24 23 26 26 23 24 23 22 20 18 19 20 19 20 19 19 16 14 12 15 18 15 8 7 9 10 7 8 12 10 15 14 11 10 14 12 12 10 13 9 10 13 15 14 20 13 12 10 18 17 16 14 10 12 13 12 12 11 12 14 14 14 13 12 11 11 9 9 8
23 20 25 29 30 27 24 22 21 29 30 28 25 21 22 23 25 25 24 23 23 21 19 21 21 20 20 21 22 22 21 20 13 10 7 10 12 9 8 7 11 9 7 8 11 12 11 10 11 13 12 15 13 10 11 13 15 18 15 15 19 17 13 11 15 15 17 15 13 13 13 12 10 9 10 9 11 12 11 10 9 9 9 8 8
25 25 25 28 29 27 23 22 21 25 26 26 25 24 24 23 24 26 24 23 16 21 20 20 20 19 19 20 20 19 17 12 10 8 8 4 5 8 7 10 11 11 13 11 10 9 10 11 12 12 13 13 13 10 14 15 19 17 16 15 14 18 15 12 14 16 14 13 13 13 13 12 9 6 8 8 7 7 10 9 9 9 9 9 9
24 24 25 28 29 27 21 21 21 22 25 24 25 25 22 23 23 23 26 24 20 22 22 19 18 18 18 16 15 15 14 9 7 9 10 6 5 7 6 9 8 10 14 10 8 9 10 13 13 13 14 13 13 15 14 15 16 17 14 13 12 16 17 14 17 16 13 13 12 12 12 10 7 9 5 5 6 5 7 9 7 7 6 6 6
25 19 22 25 27 25 20 19 21 21 21 21 22 22 21 22 22 24 25 23 23 23 22 20 17 17 17 16 14 14 13 10 7 9 11 6 4 6 7 6 5 7 10 10 11 12 13 12 13 14 14 13 13 15 17 11 15 14 15 15 12 18 16 12 14 15 11 11 10 9 10 9 7 6 7 4 5 6 4 5 7 6 5 4 6
27 23 24 23 24 24 21 20 22 21 20 21 21 20 20 20 21 23 24 22 20 18 19 17 15 14 17 17 15 13 12 10 7 8 8 4 2 6 6 5 4 6 7 8 13 11 12 12 14 13 11 14 16 18 13 13 15 14 15 13 15 15 12 11 13 13 10 10 10 8 6 7 6 5 5 6 3 4 4 4 5 nan 2 5 6
29 25 25 24 23 26 25 22 22 20 19 20 20 20 17 16 18 21 23 22 25 20 16 14 14 13 15 13 15 14 12 8 6 6 5 5 1 5 5 4 5 6 8 9 12 12 13 11 11 11 14 14 17 15 15 15 14 15 14 14 12 13 12 11 10 9 9 10 11 8 6 6 5 4 4 3 3 2 3 3 2 nan 3 4 8
30 25 21 23 22 25 24 24 22 20 18 19 20 18 17 16 17 19 21 23 23 22 25 17 14 12 12 15 15 14 13 9 6 3 4 4 4 5 9 10 7 6 9 9 14 12 11 9 15 12 14 14 14 15 14 13 16 15 13 11 12 11 11 10 9 9 10 11 10 8 5 5 3 3 3 3 3 2 2 3 2 5 5 5 9
30 24 18 21 23 25 24 22 22 21 18 18 19 17 17 18 18 20 21 23 24 25 25 23 18 14 13 13 16 13 12 8 3 2 4 5 5 5 5 7 6 8 9 12 16 14 10 13 15 15 13 12 11 13 12 13 11 12 12 11 11 10 10 10 10 8 7 7 8 7 4 3 2 3 5 5 4 5 5 4 4 4 6 6 6
30 24 19 20 22 23 22 23 21 20 19 18 18 17 17 19 22 21 20 22 24 24 26 26 22 20 18 17 13 12 11 6 4 6 7 6 5 4 4 4 6 8 9 13 15 12 8 12 16 14 14 10 11 12 7 7 11 12 14 13 9 9 7 8 7 5 2 6 5 7 3 3 1 3 5 7 7 6 5 8 8 6 6 7 9
26 22 23 20 20 21 22 22 22 20 20 20 20 19 20 19 22 22 22 24 26 25 26 26 23 22 19 17 13 9 9 8 8 9 9 6 5 3 4 5 7 7 9 12 17 16 9 10 14 14 14 11 9 10 6 7 8 13 12 8 9 9 9 3 4 3 4 5 9 3 3 4 1 5 5 7 nan nan nan 9 12 10 8 9 11
29 30 28 25 20 20 22 21 22 20 21 24 24 23 24 22 21 22 25 26 25 23 23 23 20 17 17 13 11 9 10 9 9 10 8 7 6 5 6 6 6 7 8 10 15 16 12 8 9 11 12 9 10 11 10 9 10 13 11 12 11 7 6 6 6 4 4 5 7 3 3 5 9 10 nan nan nan nan nan 10 12 13 11 12 13
36 44 35 28 20 19 20 19 20 21 23 26 28 26 25 26 23 21 21 21 21 20 19 20 18 15 14 14 12 11 11 11 11 9 8 7 6 5 6 6 6 7 9 9 15 19 19 8 5 12 9 9 12 13 12 9 10 13 13 11 8 8 10 8 7 7 5 6 10 5 1 4 6 nan nan nan nan nan nan 12 12 13 15 13 12
50 46 34 26 20 14 18 19 21 22 24 27 31 27 27 27 26 22 20 20 20 18 19 18 17 17 17 15 12 12 11 11 9 7 7 7 6 5 6 6 6 8 8 12 16 18 16 12 10 12 10 14 14 14 13 11 12 13 10 10 9 7 10 10 8 10 10 7 8 11 9 nan nan nan nan nan nan nan nan nan nan nan nan nan nan
44 36 29 30 22 12 15 20 22 25 24 27 31 28 28 27 26 24 22 20 20 21 20 18 19 19 18 15 14 14 10 8 8 7 7 7 7 7 8 7 8 8 8 12 14 16 16 16 14 15 15 19 13 11 12 14 14 12 10 10 10 11 14 12 12 10 12 12 9 9 nan nan nan nan nan nan nan nan nan nan nan nan nan nan nan
37 32 26 26 27 16 16 19 24 25 25 29 30 29 29 28 26 25 23 20 21 22 21 20 19 18 18 16 14 12 10 8 8 10 8 7 7 7 6 7 8 8 10 12 17 16 17 18 18 18 17 20 15 10 14 16 15 13 12 12 12 12 13 13 13 13 12 12 10 10 nan nan nan nan nan nan nan nan nan nan nan nan nan nan nan
33 28 24 26 23 23 18 21 23 25 25 29 29 30 30 28 26 25 25 23 21 22 22 21 19 16 16 11 13 12 11 10 10 9 7 5 6 6 7 8 8 9 11 15 19 16 19 18 19 18 19 19 17 15 17 18 16 14 13 13 11 11 13 12 12 13 14 10 9 11 nan nan nan nan nan nan nan nan nan nan nan nan nan nan nan
31 28 25 23 23 24 22 21 22 23 26 27 29 30 29 28 26 26 25 24 23 25 23 20 17 15 13 11 12 10 9 8 8 7 9 6 8 8 9 9 10 11 12 18 18 19 18 21 21 17 18 19 18 17 17 18 15 14 15 13 13 12 11 11 11 11 10 9 8 nan nan nan nan nan nan nan nan nan nan nan nan nan nan nan nan
Wind_Direction
291 290 286 287 287 288 289 294 293 291 293 295 297 299 301 303 302 302 301 302 305 306 306 306 307 307 307 307 306 306 306 307 309 312 313 315 316 315 315 317 311 310 312 306 304 304 300 297 297 296 296 291 287 289 292 294 297 297 295 294 293 292 287 284 283 276 268 261 257 255 255 258 261 254 252 255 252 250 250 247 244 226 220 240 211
292 288 287 286 286 285 289 292 291 291 293 296 298 300 302 302 301 301 301 303 305 305 306 307 308 307 307 307 307 306 308 309 311 313 313 316 316 313 313 315 316 315 310 307 307 303 301 299 295 297 300 296 291 297 300 301 302 303 301 300 300 296 295 293 294 290 282 272 266 258 253 252 257 260 255 254 252 249 254 253 244 239 234 250 213
293 291 288 291 288 284 288 291 291 293 295 295 298 300 301 301 300 301 302 303 304 306 306 307 308 308 308 308 308 308 309 311 311 313 314 316 317 315 314 316 320 316 309 309 305 301 300 300 299 300 301 298 301 306 305 307 311 310 311 311 303 295 295 299 299 302 298 291 283 270 258 251 243 246 251 250 250 248 244 246 257 266 256 259 266
293 291 287 291 285 285 287 290 292 293 295 296 297 300 299 299 300 301 302 304 305 306 306 307 307 308 308 308 309 309 310 311 313 313 315 316 315 316 318 320 314 311 311 309 304 303 300 297 296 296 298 302 308 313 313 317 319 320 314 306 298 291 292 303 320 308 299 292 294 289 283 247 244 243 243 246 245 241 240 242 245 247 249 250 245
294 289 287 289 289 284 287 290 291 293 295 295 298 298 298 298 300 301 302 304 304 305 305 305 306 308 307 307 308 308 309 311 313 314 315 314 314 317 323 318 312 313 314 308 306 303 299 297 296 294 297 303 306 311 311 321 326 321 309 302 297 298 305 326 340 340 311 294 290 309 310 276 231 235 241 242 243 242 235 235 238 241 243 239 229
290 290 289 285 286 288 288 290 292 293 295 296 297 297 297 297 299 301 303 304 304 304 305 304 305 307 305 305 306 307 307 308 311 313 313 312 314 321 321 316 314 315 310 310 309 306 304 298 296 295 296 300 304 306 310 318 329 322 307 307 315 322 335 354 10 25 17 12 353 68 274 255 239 226 241 242 241 241 239 236 233 234 240 238 230
289 292 288 286 286 289 290 291 292 294 295 295 296 296 296 298 300 302 302 304 304 304 303 302 304 305 304 304 305 307 307 307 308 309 313 311 316 326 319 316 316 314 312 313 310 307 306 299 292 292 294 295 298 302 309 315 334 319 318 319 328 352 12 14 18 38 47 57 39 49 262 267 246 224 243 246 244 248 247 244 238 235 242 241 236
290 291 288 287 285 288 289 290 292 293 295 295 295 296 298 300 301 302 301 304 305 305 304 302 303 303 303 303 303 304 305 305 307 304 312 314 317 319 317 317 317 315 312 311 311 308 305 300 288 282 287 292 296 302 311 321 332 327 334 355 359 16 34 48 51 37 60 65 60 49 267 256 231 217 235 241 253 253 248 242 239 237 238 237 238
292 292 288 285 288 290 287 288 291 293 294 295 295 297 299 301 302 301 303 305 305 305 304 302 302 302 301 301 303 305 308 309 307 306 313 316 318 322 321 316 316 314 311 312 311 311 305 303 293 283 284 291 297 305 315 325 341 nan nan 13 28 94 121 155 166 150 356 242 226 nan 250 nan nan 225 239 245 239 238 244 242 242 246 245 244 240
296 294 286 284 290 287 288 289 291 293 293 294 297 299 300 302 303 302 303 303 303 302 302 300 300 301 301 301 304 306 307 308 307 308 312 315 319 319 312 317 318 316 317 312 308 306 307 302 299 291 285 289 300 308 318 328 343 360 nan 10 50 154 175 171 160 136 259 nan 245 245 nan nan nan 237 250 244 243 244 244 249 249 248 245 245 248
293 288 286 287 292 290 290 291 292 293 294 296 299 300 302 303 302 302 301 301 300 299 299 298 299 300 300 302 304 304 305 306 307 309 311 314 318 315 317 315 308 306 306 312 306 302 300 300 294 294 293 298 304 311 321 328 342 360 15 6 309 136 143 152 141 75 nan 273 276 270 258 259 231 227 252 249 246 244 nan 244 246 248 247 247 247
289 287 283 287 294 292 293 294 294 293 294 295 298 299 300 301 301 300 298 298 296 297 297 296 298 297 299 300 301 302 304 306 308 309 312 313 315 312 312 310 302 304 310 307 302 295 288 287 290 289 294 304 308 310 318 326 333 349 343 12 17 120 107 116 104 6 260 253 243 239 248 259 265 262 259 259 256 nan 248 249 248 249 250 251 nan
283 281 284 291 296 293 294 295 295 294 291 293 296 296 298 300 300 298 296 294 294 294 295 295 295 293 294 297 299 301 300 300 305 308 312 312 310 308 312 311 310 308 303 298 292 290 288 285 286 287 297 312 314 313 313 318 326 330 6 30 41 75 97 105 84 290 266 266 262 nan nan nan nan 272 270 263 264 257 250 252 254 254 nan 248 248
281 284 288 294 295 297 293 294 295 295 295 294 295 297 299 298 298 295 293 292 292 291 292 293 292 293 292 292 296 297 297 299 298 297 304 303 303 303 310 308 302 297 296 295 289 288 288 283 282 288 296 310 314 317 317 319 322 346 13 24 43 61 94 108 308 270 274 nan nan nan nan nan nan 259 259 259 259 258 258 257 256 nan nan nan nan
285 287 290 294 295 296 297 294 295 295 297 297 298 300 299 298 296 293 292 291 290 289 291 291 292 290 292 294 295 298 296 300 299 294 292 298 297 299 306 300 296 297 297 290 287 291 287 283 283 288 301 308 312 313 318 317 323 339 18 25 43 63 89 102 278 272 272 271 265 nan nan nan 263 254 258 268 264 260 257 256 nan nan nan nan 251
286 288 292 292 296 295 296 297 292 294 297 298 299 301 300 298 295 292 291 289 287 285 286 288 287 289 291 293 295 296 298 303 299 292 291 292 295 297 298 293 292 295 296 288 288 287 288 291 290 288 294 302 305 308 312 311 312 343 8 19 37 60 82 93 292 282 nan nan nan nan nan 241 245 257 264 265 269 nan nan nan nan nan nan nan nan
288 292 294 295 296 297 295 297 295 296 296 299 301 302 300 297 294 292 289 286 284 281 284 284 284 285 286 292 297 298 300 301 296 293 290 290 292 294 293 292 293 293 292 289 285 285 288 292 292 295 298 301 306 307 309 310 315 346 5 22 24 56 76 114 286 273 261 265 267 nan nan nan nan nan nan nan nan nan nan nan nan 261 257 258 258
293 293 293 295 296 296 295 297 298 299 301 300 300 300 300 297 294 292 287 282 280 280 281 281 281 284 282 285 294 297 300 300 295 293 292 291 291 292 290 291 291 289 288 289 285 284 288 291 293 296 301 303 305 310 313 317 329 347 358 16 29 86 184 200 280 272 267 264 nan nan 264 270 268 267 267 266 266 270 271 nan 270 266 263 263 263
293 291 292 293 295 295 299 299 303 303 303 301 300 298 298 297 295 293 287 282 279 279 281 280 281 283 282 283 293 292 297 297 294 293 294 294 292 291 291 290 288 283 286 288 285 285 290 291 294 297 304 305 306 315 324 322 325 339 350 352 334 188 155 270 281 274 264 nan nan 266 265 268 271 268 267 267 270 270 267 269 nan nan nan nan nan
292 292 293 294 295 296 297 299 303 302 301 300 299 299 296 296 295 292 287 283 282 279 279 278 281 283 287 292 294 293 293 292 296 294 295 292 292 288 289 288 286 283 284 286 287 285 285 292 293 300 304 306 306 316 321 321 313 325 341 341 339 44 355 286 277 276 274 270 267 265 273 273 274 273 268 265 265 267 271 269 270 272 269 nan nan
290 295 295 297 298 299 299 299 303 301 302 298 296 296 296 296 294 291 288 287 285 283 280 281 277 282 284 291 295 289 288 289 292 290 291 285 284 285 286 286 284 282 284 287 288 282 283 291 299 304 310 310 309 317 318 312 314 320 333 342 1 324 332 291 285 nan nan nan 277 276 276 272 270 269 272 273 272 269 263 264 266 268 nan nan nan
296 297 300 299 298 299 301 299 299 301 297 292 291 291 294 297 294 290 287 285 282 279 279 277 278 273 282 283 284 283 279 279 282 286 279 280 280 285 284 284 281 283 287 289 287 284 288 295 303 313 315 314 315 308 308 311 317 326 333 347 337 346 314 301 296 nan 288 284 283 287 288 286 278 275 274 271 269 268 268 268 268 nan nan nan nan
299 298 297 297 295 297 296 297 297 296 293 289 286 287 293 292 292 291 286 287 284 280 275 275 274 279 282 280 268 274 279 279 271 271 277 275 273 279 280 281 283 284 286 288 287 285 288 299 307 316 318 322 316 309 308 301 304 330 333 326 325 352 309 301 297 292 289 288 286 292 286 283 281 279 277 274 272 269 268 268 nan nan nan nan nan
297 295 293 291 293 294 293 292 295 290 289 285 282 282 286 287 286 287 283 280 280 279 275 275 277 280 275 270 273 273 275 271 281 289 279 265 265 274 279 280 282 284 288 282 282 283 289 297 306 307 312 317 314 307 304 297 296 305 314 306 333 315 318 304 294 296 296 293 291 295 288 284 284 283 282 279 277 274 274 273 271 272 nan nan nan
289 288 286 287 286 282 284 284 286 286 282 277 275 280 282 283 282 281 279 279 280 278 274 264 259 266 269 272 273 272 271 274 271 267 262 260 259 261 265 265 268 273 286 276 279 287 289 297 296 302 309 312 309 297 284 286 282 284 270 296 304 311 297 293 290 291 286 282 290 294 291 285 283 285 283 282 281 281 279 277 275 nan nan nan nan
285 285 287 288 281 275 274 278 278 271 271 271 273 275 285 278 281 277 279 281 275 267 268 269 268 269 269 270 271 273 271 270 267 262 257 257 257 258 260 260 266 272 279 275 282 286 291 300 301 305 299 300 291 291 287 281 284 280 240 244 323 307 310 293 284 284 287 288 288 290 290 287 284 282 282 282 282 282 281 280 nan nan nan nan nan
281 279 264 259 256 267 265 261 263 265 260 258 258 263 261 260 259 266 267 263 269 271 269 271 273 270 271 273 275 274 273 267 266 265 256 248 253 258 256 256 262 268 278 278 286 284 295 302 297 299 293 293 299 290 286 283 283 273 210 209 288 289 302 300 291 290 292 291 290 288 288 286 283 281 283 283 284 285 283 282 281 nan nan nan nan
282 261 263 277 295 296 286 280 275 267 262 259 257 255 255 259 259 262 267 270 271 271 272 273 273 270 271 274 272 274 273 271 269 274 266 248 243 242 235 252 262 263 273 282 286 287 298 297 296 296 294 293 295 280 279 272 264 258 234 242 262 291 303 300 290 291 291 291 290 288 287 287 287 284 284 284 285 286 285 283 279 nan nan 272 275
262 270 280 300 293 276 276 280 277 276 274 272 268 262 258 263 256 266 271 272 272 276 283 277 271 268 274 275 272 274 275 275 279 276 261 244 234 230 218 228 269 272 273 265 278 290 296 292 295 300 290 289 290 278 274 267 255 250 289 272 278 336 287 289 292 291 292 293 293 290 288 285 281 281 282 283 283 286 285 283 284 283 277 278 279
273 277 285 283 287 281 279 279 279 282 284 285 279 268 266 261 266 278 279 279 276 280 281 276 265 269 273 277 274 273 274 281 280 267 251 242 227 225 216 225 242 260 274 269 271 286 289 278 290 291 297 297 297 281 270 266 267 282 273 274 264 275 286 294 291 292 291 290 291 290 287 282 283 283 281 281 281 280 282 288 289 285 286 284 288
267 271 278 290 290 287 280 282 285 290 285 282 280 276 274 276 279 279 278 278 277 279 283 280 272 271 276 278 276 271 272 275 271 259 252 239 230 227 240 254 274 258 270 270 272 280 281 284 280 290 293 297 289 273 258 251 242 238 271 293 290 259 286 292 295 293 292 292 291 288 283 279 277 273 274 277 283 286 292 293 291 290 288 288 288
273 285 286 286 284 283 286 291 293 288 285 283 284 281 275 279 278 273 274 277 280 282 284 286 282 277 279 278 274 272 271 270 266 264 255 240 232 238 247 255 257 263 262 259 255 258 264 282 292 287 270 252 247 243 240 257 266 262 296 273 257 238 282 296 292 290 290 294 293 288 288 281 277 275 273 283 286 291 291 290 287 286 283 281 281
280 289 293 290 286 286 291 294 296 286 284 288 288 287 281 284 286 283 282 285 286 285 286 285 284 283 282 279 272 271 271 267 268 267 251 242 238 244 240 242 263 252 246 254 257 258 261 263 263 258 260 262 260 251 249 245 261 273 271 267 266 266 248 279 293 287 284 287 289 293 291 281 278 274 274 277 281 289 288 282 281 279 281 281 285
282 293 292 288 289 293 296 300 294 288 291 294 297 293 287 288 284 278 279 285 284 284 286 285 290 289 285 277 276 275 269 261 255 257 262 247 246 247 247 266 270 261 254 260 265 251 255 263 262 253 240 247 250 254 256 256 267 259 253 260 270 262 266 278 281 283 284 273 263 270 272 279 285 286 283 280 280 281 283 283 284 282 279 277 278
291 297 296 297 296 297 302 301 298 289 290 293 295 289 291 288 280 277 272 278 283 283 288 285 290 287 277 276 281 281 270 255 242 252 262 262 259 261 257 264 262 254 249 258 257 238 247 267 247 249 255 247 241 245 266 271 258 252 239 242 264 272 252 246 279 282 282 287 285 274 272 271 266 282 292 286 282 286 287 283 278 278 271 271 273
300 295 298 300 301 303 309 306 299 290 287 290 289 291 292 286 281 277 275 275 279 284 287 287 291 287 280 272 272 286 284 247 225 248 241 255 260 264 268 265 257 235 236 241 256 255 237 241 239 240 253 255 263 258 248 252 261 270 251 243 265 274 274 278 276 279 277 280 285 281 277 273 274 271 286 290 287 291 294 287 283 278 273 266 262
290 296 305 307 304 306 306 303 301 290 287 293 292 292 286 282 281 280 281 295 298 283 283 282 285 287 289 289 281 275 273 260 218 219 225 207 258 276 287 278 266 251 246 237 243 255 242 233 232 235 250 257 266 265 250 254 263 257 251 258 273 279 281 277 274 280 281 278 277 277 280 280 284 292 285 288 305 299 293 295 292 285 277 267 261
294 299 301 303 304 303 301 298 295 287 282 287 290 290 286 282 280 277 277 289 291 280 280 283 287 286 290 297 292 279 273 269 249 240 246 189 193 264 274 276 289 256 238 234 230 227 233 229 241 232 242 258 260 257 252 249 257 254 260 272 284 277 278 275 270 267 276 274 266 266 272 282 290 290 294 310 316 309 310 312 306 308 282 283 278
290 296 296 303 304 300 297 301 296 291 282 282 286 286 282 273 271 273 283 289 285 277 283 282 287 291 295 295 294 287 283 280 263 261 245 229 88 255 242 254 257 259 248 229 244 233 223 225 230 249 245 250 255 262 275 259 258 261 263 272 269 268 267 258 260 273 269 269 267 265 268 262 273 291 296 303 318 312 324 353 353 nan 298 272 268
285 285 296 300 303 294 300 300 299 299 289 281 283 288 285 279 273 269 269 285 292 295 294 294 290 299 298 292 289 287 284 292 293 274 282 40 291 243 246 235 238 267 262 243 259 240 222 247 265 256 261 256 257 270 263 263 264 265 260 257 263 268 260 253 253 264 272 268 270 267 255 266 272 291 302 313 330 352 339 345 296 nan 300 271 268
280 284 293 299 299 292 294 298 299 302 294 288 282 287 291 281 276 280 285 285 292 293 295 303 299 300 297 295 283 289 286 297 298 304 354 6 260 248 236 215 228 266 249 254 269 249 243 256 256 243 257 261 258 257 269 282 275 261 255 257 259 255 258 255 250 254 262 261 271 269 256 266 306 328 342 340 358 360 37 331 317 300 304 305 280
278 285 293 289 291 292 295 293 293 300 298 292 289 288 279 274 275 276 277 286 292 291 291 298 309 304 296 293 297 299 289 283 281 347 352 312 306 300 248 222 253 278 263 253 266 241 233 265 258 250 243 249 251 259 274 274 262 277 281 268 259 252 254 253 252 257 264 288 288 269 241 258 294 357 347 347 1 349 336 323 310 305 308 301 302
280 282 286 288 286 285 288 289 290 296 295 293 291 289 279 270 267 270 276 276 278 282 288 293 300 306 305 299 299 294 291 291 333 332 323 312 310 299 246 252 285 283 266 272 274 272 252 270 268 265 260 235 239 240 261 238 265 273 270 276 281 277 270 260 255 265 265 276 283 276 288 276 37 12 339 331 336 318 293 296 302 299 288 294 289
279 278 281 277 269 270 276 283 290 293 297 300 297 287 280 272 269 269 265 264 272 275 282 285 289 293 292 293 303 292 286 296 315 319 308 300 289 280 251 280 285 271 281 280 273 281 258 239 257 271 277 276 266 261 249 238 258 272 268 255 282 278 284 275 277 255 261 280 252 290 271 310 340 357 351 318 nan nan nan 287 292 294 294 293 292
286 283 272 262 252 266 268 282 292 297 298 299 296 293 288 281 272 267 265 268 272 277 283 284 286 287 283 288 292 270 272 283 289 295 289 282 284 264 261 269 264 268 270 273 278 280 272 238 258 276 282 274 272 257 256 245 254 231 241 265 264 270 273 283 279 249 263 275 285 303 360 328 357 354 nan nan nan nan nan 285 288 296 291 283 289
268 265 257 233 237 263 275 285 291 295 299 301 299 298 298 297 294 289 286 281 282 285 291 294 288 282 280 269 265 262 276 284 271 257 266 268 265 243 253 257 252 254 256 251 266 260 265 265 279 263 274 259 264 262 259 244 244 245 240 248 249 263 284 292 292 277 254 262 297 320 338 12 321 nan nan nan nan nan nan 284 287 291 295 297 290
255 263 258 249 220 253 286 294 292 294 297 300 301 300 301 303 306 304 298 292 286 282 279 278 275 269 264 268 265 262 273 277 267 259 242 245 242 226 232 237 243 266 263 257 257 267 275 292 287 281 281 276 272 272 277 276 258 255 254 240 247 252 271 285 271 277 271 255 281 313 322 nan nan nan nan nan nan nan nan nan nan nan nan nan nan
264 274 275 268 268 260 289 294 290 294 295 297 301 301 302 305 307 304 299 293 283 281 283 279 269 265 265 258 252 253 253 254 258 254 232 232 228 218 222 228 232 236 259 264 263 270 272 277 282 285 278 267 252 270 281 282 283 267 248 247 243 249 252 247 275 280 280 286 280 264 nan nan nan nan nan nan nan nan nan nan nan nan nan nan nan
264 271 273 267 270 276 288 289 292 293 294 297 299 304 302 305 306 302 295 287 281 278 279 273 266 260 261 251 247 238 232 222 235 246 241 237 232 225 229 228 235 231 244 251 255 262 270 273 274 268 274 279 288 285 280 282 278 273 262 247 247 248 252 250 248 254 270 280 274 278 nan nan nan nan nan nan nan nan nan nan nan nan nan nan nan
268 274 269 256 260 276 286 288 291 291 294 298 299 302 302 304 306 303 296 286 280 277 274 269 263 261 261 254 243 225 221 219 219 219 248 263 256 242 233 236 234 237 240 248 258 258 262 267 266 267 276 279 274 274 280 277 272 274 258 254 255 258 248 245 248 254 248 246 279 288 nan nan nan nan nan nan nan nan nan nan nan nan nan nan nan
266 266 262 258 259 265 271 282 287 289 294 296 300 302 302 304 305 304 300 292 285 279 273 272 266 261 263 254 252 234 214 230 234 227 238 216 250 236 242 236 236 235 235 248 256 270 268 271 275 273 273 280 278 273 270 267 268 267 257 255 264 266 253 249 264 259 262 259 254 nan nan nan nan nan nan nan nan nan nan nan nan nan nan nan nan